Weather History for Houston / Southwest Airport, TX

Change the Weather History Date:

Monday, November 4, 2013

  Actual Average (KHOU) Record (KHOU)
Temperature  
Mean Temperature 63 °F 66 °F  
Max Temperature 72 °F 76 °F 89 °F (1988)
Min Temperature 54 °F 56 °F 28 °F (1991)
Degree Days  
Heating Degree Days 2 3  
Month to date heating degree days 11  
Since 1 July heating degree days 41  
Growing Degree Days 13 (Base 50)    
Moisture  
Dew Point 61 °F    
Average Humidity 87    
Maximum Humidity 97    
Minimum Humidity 74    
Precipitation  
Precipitation 0.08 in 0.16 in 3.20 in (1902)
Month to date precipitation 0.60  
Year to date precipitation 42.29  
Sea Level Pressure  
Sea Level Pressure 30.05 in    
Wind  
Wind Speed 4 mph (East)    
Max Wind Speed 15 mph    
Max Gust Speed 21 mph    
Visibility 9 miles    
Events Rain    
T = Trace of Precipitation, MM = Missing Value Source: NWS Daily Summary

Daily Weather History Graph

Daily Weather History Graph

Search for Another Location

Airport:

Trip Planner

Search our weather history database for the weather conditions in past years. The results will help you decide how hot, cold, wet, or windy it might be!

Date:

Astronomy

Nov. 04, 2013 Rise Set
Actual Time 6:37 AM CST 5:32 PM CST
Civil Twilight 6:12 AM CST 5:57 PM CST
Nautical Twilight 5:44 AM CST 6:25 PM CST
Astronomical Twilight 5:16 AM CST 6:53 PM CST
Moon 7:44 AM CST (11/4) 6:43 PM CST (11/4)
Length of Visible Light 11h 44m
Length of Day
10h 55m
New Moon, 2% of the Moon is Illuminated
Nov 4
New Moon
Nov 9
First Quarter
Nov 17
Full
Nov 25
Last Quarter
Dec 2
New

Hourly Weather History & Observations

Time (CST) Temp. Dew Point Humidity Pressure Visibility Wind Dir Wind Speed Gust Speed Precip Events Conditions
12:15 AM 55.0 °F 49.6 °F 82% 30.10 in 10.0 mi Calm Calm - N/A   Scattered Clouds
12:35 AM 54.9 °F 49.6 °F 83% 30.09 in 10.0 mi East 3.5 mph - N/A   Scattered Clouds
12:55 AM 54.7 °F 50.0 °F 84% 30.08 in 10.0 mi East 3.5 mph - N/A   Clear
1:15 AM 55.0 °F 50.2 °F 84% 30.08 in 10.0 mi East 4.6 mph - N/A   Clear
1:35 AM 55.6 °F 50.5 °F 83% 30.07 in 10.0 mi ENE 3.5 mph - N/A   Clear
1:55 AM 55.8 °F 50.9 °F 84% 30.07 in 10.0 mi Calm Calm - N/A   Clear
2:15 AM 55.6 °F 51.1 °F 85% 30.06 in 10.0 mi Calm Calm - N/A   Clear
2:35 AM 55.9 °F 51.4 °F 85% 30.05 in 10.0 mi East 3.5 mph - N/A   Clear
2:55 AM 57.0 °F 52.2 °F 84% 30.04 in 10.0 mi East 5.8 mph - N/A   Clear
3:15 AM 57.2 °F 52.7 °F 85% 30.05 in 10.0 mi Calm Calm - N/A   Scattered Clouds
3:35 AM 57.2 °F 53.2 °F 87% 30.05 in 10.0 mi Calm Calm - N/A   Scattered Clouds
3:55 AM 57.9 °F 53.8 °F 86% 30.04 in 10.0 mi Calm Calm - N/A   Overcast
4:15 AM 58.5 °F 54.5 °F 87% 30.03 in 10.0 mi Calm Calm - N/A   Overcast
4:35 AM 57.9 °F 54.3 °F 88% 30.02 in 10.0 mi ENE 4.6 mph - N/A   Overcast
4:55 AM 58.5 °F 55.2 °F 89% 30.04 in 10.0 mi Calm Calm - N/A   Mostly Cloudy
5:15 AM 59.2 °F 55.6 °F 88% 30.05 in 10.0 mi North 3.5 mph - N/A   Overcast
5:35 AM 59.5 °F 55.8 °F 87% 30.04 in 10.0 mi NE 4.6 mph - N/A   Overcast
5:55 AM 60.4 °F 55.9 °F 85% 30.04 in 10.0 mi ENE 5.8 mph - N/A   Overcast
6:15 AM 60.1 °F 55.9 °F 86% 30.03 in 10.0 mi ENE 6.9 mph - N/A   Overcast
6:35 AM 60.3 °F 56.3 °F 87% 30.03 in 10.0 mi ENE 5.8 mph - N/A   Overcast
6:55 AM 60.4 °F 56.3 °F 86% 30.04 in 10.0 mi Calm Calm - N/A   Overcast
7:15 AM 61.0 °F 56.8 °F 86% 30.06 in 10.0 mi North 3.5 mph - N/A   Overcast
7:35 AM 61.3 °F 57.2 °F 86% 30.07 in 10.0 mi North 3.5 mph - N/A   Overcast
7:55 AM 62.1 °F 57.6 °F 85% 30.08 in 10.0 mi NNE 4.6 mph - N/A   Overcast
8:15 AM 62.6 °F 58.1 °F 85% 30.09 in 10.0 mi Calm Calm - N/A   Overcast
8:35 AM 63.0 °F 58.5 °F 85% 30.09 in 10.0 mi NNE 5.8 mph - N/A   Overcast
8:55 AM 64.4 °F 59.4 °F 84% 30.09 in 10.0 mi NE 5.8 mph - N/A   Overcast
9:15 AM 64.6 °F 59.9 °F 85% 30.09 in 10.0 mi NE 6.9 mph - N/A   Overcast
9:35 AM 65.8 °F 61.0 °F 84% 30.09 in 10.0 mi NE 5.8 mph - N/A   Overcast
9:55 AM 66.7 °F 61.5 °F 83% 30.09 in 10.0 mi NE 3.5 mph - N/A   Overcast
10:15 AM 68.0 °F 62.2 °F 82% 30.09 in 10.0 mi Calm Calm - N/A   Overcast
10:35 AM 67.8 °F 62.6 °F 83% 30.09 in 7.0 mi Calm Calm - N/A   Heavy Drizzle
10:55 AM 68.4 °F 64.6 °F 88% 30.09 in 10.0 mi Calm Calm - N/A   Overcast
11:15 AM 70.2 °F 64.2 °F 81% 30.08 in 10.0 mi Calm Calm - N/A   Overcast
11:35 AM 71.6 °F 64.6 °F 78% 30.07 in 10.0 mi East 5.8 mph - N/A   Overcast
11:55 AM 70.0 °F 65.7 °F 86% 30.06 in 4.0 mi Calm Calm - 0.01 in Rain Rain
12:15 PM 69.3 °F 65.7 °F 88% 30.06 in 5.0 mi Calm Calm - 0.04 in Rain Light Rain
12:35 PM 70.9 °F 64.9 °F 81% 30.04 in 10.0 mi ESE 6.9 mph - 0.04 in   Overcast
12:55 PM 71.1 °F 64.4 °F 79% 30.03 in 10.0 mi East 6.9 mph - N/A   Overcast
1:15 PM 71.8 °F 64.0 °F 77% 30.03 in 10.0 mi SE 6.9 mph 16.1 mph N/A   Overcast
1:35 PM 72.0 °F 63.5 °F 75% 30.02 in 10.0 mi East 15.0 mph 20.7 mph N/A   Overcast
1:55 PM 72.7 °F 63.9 °F 74% 30.01 in 10.0 mi ESE 11.5 mph 17.3 mph N/A   Overcast
2:15 PM 72.7 °F 64.0 °F 74% 30.01 in 10.0 mi East 13.8 mph 18.4 mph N/A   Overcast
2:35 PM 70.0 °F 65.3 °F 85% 30.01 in 7.0 mi East 10.4 mph - N/A Rain Rain
2:55 PM 70.7 °F 65.1 °F 82% 30.01 in 10.0 mi East 8.1 mph 16.1 mph N/A   Overcast
3:15 PM 69.6 °F 64.6 °F 84% 30.01 in 5.0 mi ESE 8.1 mph 17.3 mph N/A   Drizzle
3:35 PM 69.4 °F 64.6 °F 84% 30.01 in 10.0 mi ESE 9.2 mph - N/A   Overcast
3:55 PM 68.5 °F 65.5 °F 90% 30.01 in 4.0 mi ESE 11.5 mph 19.6 mph N/A   Drizzle
4:15 PM 68.0 °F 66.2 °F 94% 30.01 in 5.0 mi East 9.2 mph - N/A   Light Drizzle
4:35 PM 68.0 °F 66.2 °F 94% 30.02 in 5.0 mi East 9.2 mph 19.6 mph N/A   Light Drizzle
4:55 PM 67.5 °F 66.2 °F 96% 30.02 in 2.5 mi East 10.4 mph 19.6 mph N/A Rain Rain
5:15 PM 67.1 °F 65.8 °F 96% 30.02 in 3.0 mi East 9.2 mph 17.3 mph 0.01 in Rain Light Rain
5:35 PM 67.1 °F 65.7 °F 95% 30.03 in 3.0 mi East 8.1 mph - 0.01 in Rain Rain
5:55 PM 67.1 °F 65.7 °F 95% 30.03 in 3.0 mi East 8.1 mph - N/A Rain Light Rain
6:15 PM 67.1 °F 65.8 °F 96% 30.03 in 4.0 mi East 8.1 mph - 0.01 in Rain Rain
6:35 PM 67.1 °F 65.8 °F 96% 30.03 in 7.0 mi East 3.5 mph - 0.02 in   Drizzle
6:55 PM 67.1 °F 66.2 °F 97% 30.03 in 7.0 mi East 3.5 mph - N/A Rain Rain
7:15 PM 67.1 °F 66.2 °F 97% 30.03 in 10.0 mi East 3.5 mph - N/A   Overcast
7:35 PM 67.5 °F 66.2 °F 96% 30.04 in 10.0 mi ESE 6.9 mph - N/A   Overcast
7:55 PM 68.5 °F 66.4 °F 93% 30.04 in 10.0 mi East 8.1 mph - N/A   Overcast
8:15 PM 68.0 °F 66.4 °F 95% 30.04 in 5.0 mi East 8.1 mph 16.1 mph N/A Rain Rain
8:35 PM 68.0 °F 66.6 °F 95% 30.04 in 7.0 mi ESE 6.9 mph - N/A Rain Rain
8:55 PM 68.0 °F 66.4 °F 95% 30.04 in 10.0 mi Calm Calm - N/A   Overcast
9:15 PM 68.0 °F 66.2 °F 94% 30.04 in 10.0 mi East 3.5 mph - N/A   Overcast
9:35 PM 68.0 °F 66.2 °F 94% 30.04 in 10.0 mi East 3.5 mph - N/A   Overcast
9:55 PM 68.0 °F 66.2 °F 94% 30.04 in 10.0 mi ESE 3.5 mph - N/A   Overcast
10:15 PM 68.4 °F 66.2 °F 93% 30.05 in 10.0 mi ESE 3.5 mph - N/A   Overcast
10:35 PM 68.9 °F 66.0 °F 90% 30.04 in 10.0 mi East 5.8 mph - N/A   Overcast
10:55 PM 69.1 °F 65.5 °F 88% 30.05 in 10.0 mi ESE 5.8 mph - N/A   Overcast
11:15 PM 68.9 °F 65.3 °F 88% 30.05 in 10.0 mi East 4.6 mph - N/A   Overcast
11:35 PM 69.3 °F 65.3 °F 87% 30.05 in 10.0 mi East 5.8 mph - N/A   Overcast
11:55 PM 69.3 °F 65.3 °F 87% 30.04 in 10.0 mi East 4.6 mph - N/A   Overcast